User: anonymous   Login
Location: Caltech
(34.1382°N, 118.1253°W)
Time: 23:46:21
(UTC-07:00)
Language:

GPS 2-04 Rocket1 - Orbit

View from above orbital plane
View from above orbital plane
View from above satellite
View from above satellite

Ground track
Ground track

The orbit data is extracted from the following two-line orbital elements,

1 20303U 89085B   18116.72586744  .00001832  00000-0  64178-4 0  9992
2 20303  35.6300 239.0938 0103023  66.5677 294.5843 15.24898993548412
Epoch (UTC): 26 April 2018 17:25:14
Eccentricity: 0.0103023
inclination: 35.6300°
perigee height: 420 km
apogee height: 562 km
right ascension of ascending node: 239.0938°
argument of perigee: 66.5677°
revolutions per day: 15.24898993
mean anomaly at epoch: 294.5843°
orbit number at epoch: 54841

The dashed part of the orbit path shows where the satellite is in the earth's shadow,  

DLR